• Join FlightAware (Why Join?)
  • Login
  • US Flag 
08:50AM EDT


 

Airport Tracker/Info


-or-


 

Live Flight TrackerFlight Track Log ✈ N100AW ✈ 18-Jul-2013 ✈ KFLL - KTPA

Flight Track Log - Related Links

Times and Time Zones

All times are in EDT time to prevent confusion due to time zone crossing. See the N100AW flight status page for this flight to view local times or setup timezone preferences in your user account.

Time Position Orientation Groundspeed Altitude Reporting Facility
EDT Latitude Longitude Course Direction KTS MPH feet Rate Location/Type
09:50AM 26.0747 -80.1458 79° East 144 166 1,000  Level Miami Center
09:51AM 26.0844 -80.0906 79° East 191 220 4,600 2,700 Climbing Miami Center
09:52AM 26.1108 -80.0197 67° East 277 319 6,600 600 Climbing Miami Center
09:53AM 26.1767 -80.0747 323° Northwest 247 284 6,000 -300 Descending Miami Center
09:54AM 26.1978 -80.1494 287° West 262 302 6,000 540 Level Miami Center
09:55AM 26.2253 -80.2311 291° West 274 315 7,100 1,500 Climbing Miami Center
09:56AM 26.2506 -80.3153 289° West 281 323 9,000 1,200 Climbing Miami Center
09:57AM 26.2797 -80.4017 291° West 301 346 9,600 840 Climbing Miami Center
09:58AM 26.3131 -80.4908 293° West 313 360 10,700 1,500 Climbing Miami Center
09:59AM 26.3169 -80.5858 273° West 314 361 12,600 1,800 Climbing Miami Center
10:00AM 26.3414 -80.6842 286° West 325 374 14,300 1,500 Climbing Miami Center
10:01AM 26.4236 -80.7378 330° Northwest 316 364 15,600 1,380 Climbing Miami Center
10:02AM 26.5078 -80.7939 329° Northwest 350 403 17,100 1,200 Climbing Miami Center
10:03AM 26.5872 -80.8639 322° Northwest 364 419 18,000 960 Climbing Miami Center
10:04AM 26.6644 -80.9386 319° Northwest 369 425 19,100 1,020 Climbing Miami Center
10:05AM 26.7358 -81.0061 320° Northwest 369 425 20,100 900 Climbing Miami Center
10:06AM 26.8231 -81.0931 318° Northwest 369 425 21,000 840 Climbing Miami Center
10:07AM 26.9042 -81.1706 320° Northwest 374 430 21,800 660 Climbing Miami Center
10:08AM 27.0008 -81.2253 333° Northwest 379 436 22,400 540 Climbing Miami Center
10:09AM 27.0972 -81.2803 333° Northwest 384 442 22,900 540 Climbing Miami Center
10:10AM 27.1956 -81.3353 334° Northwest 389 448 23,500 540 Climbing Miami Center
10:11AM 27.2983 -81.3931 333° Northwest 395 455 24,000 240 Climbing Miami Center
10:12AM 27.3856 -81.4736 321° Northwest 407 468 24,000 -420 Level Miami Center
10:13AM 27.4236 -81.5850 291° West 387 445 23,200 -900 Descending Miami Center
10:14AM 27.4264 -81.6906 272° West 365 420 22,200 -1,200 Descending Miami Center
10:15AM 27.4331 -81.8008 274° West 365 420 20,900 -1,800 Descending Miami Center
10:16AM 27.4397 -81.9108 274° West 359 413 18,600 1,500 Descending Miami Center
10:17AM 27.4481 -82.0331 274° West 359 413 24,000 -3,840 Climbing Miami Center
10:18AM 27.4589 -82.1364 277° West 359 413 11,000 -6,540 Descending Miami Center
10:19AM 27.5147 -82.2067 312° West 297 342 11,000  Level Miami Center
10:20AM 27.5644 -82.2700 312° West 297 342 11,000  Level Miami Center
10:21AM 27.6303 -82.3481 314° West 304 350 11,000 -360 Level Miami Center
10:22AM 27.6667 -82.3833 319° Northwest 312 359 10,500 -1,080 Descending Tampa TRACON
10:23AM 27.7167 -82.4333 318° Northwest 277 319 9,400 -1,620 Descending Tampa TRACON
10:24AM 27.7833 -82.4333 360° North 262 302 7,500 -1,200 Descending Tampa TRACON
10:25AM 27.8667 -82.4500 350° North 260 299 7,000 -600 Descending Tampa TRACON
10:26AM 27.9333 -82.4500 360° North 260 299 6,400 -900 Descending Tampa TRACON
10:27AM 28.0167 -82.4500 360° North 235 270 5,200 -1,200 Descending Tampa TRACON
10:28AM 28.0667 -82.4333 16° North 225 259 4,000 -1,260 Descending Tampa TRACON
10:29AM 28.1333 -82.4500 348° North 228 262 2,800 -1,080 Descending Tampa TRACON
10:30AM 28.1500 -82.5000 291° West 194 223 2,000 -360 Descending Tampa TRACON
10:31AM 28.1167 -82.5333 221° Southwest 169 194 2,100 -60 Climbing Tampa TRACON
10:32AM 28.0833 -82.5333 180° South 168 193 1,900 -600 Descending Tampa TRACON
10:33AM 28.0333 -82.5333 180° South 138 159 900 -840 Descending Tampa TRACON
10:34AM 28.0000 -82.5333 180° South 142 163 400 -600 Descending Tampa TRACON
10:35AM 27.9755 -82.5332 174° South  Level Estimated
10:42AM 27.9755 -82.5332 174° South  Level Estimated
10:43AM 27.9755 -82.5332 174° South  Level Estimated
10:44AM 27.9755 -82.5332 174° South  Level Estimated